Simultaneous Nadir Overpasses (SNOs) Predictions

Prediction of SNOs between GOES-17 and NOAA-20 Satellite Orbit:

Table of predicted SNOs for the next 14.0 days since TLE Epoch: 12/1/2024
Index Date Time (GOES-17) GOES-17 Lat,Lon NOAA-20 Lat,Lon Distance(km) Time Diff (sec)
1 12/01/2024 08:31:04 -0.00,-104.71 0.37,-106.50 203.60 80
2 12/02/2024 08:09:37 0.00,-104.70 -0.64,-101.96 313.03 80
3 12/03/2024 20:31:30 -0.01,-104.67 -0.60,-107.25 293.75 80
4 12/04/2024 20:15:24 -0.01,-104.67 0.42,-102.71 223.30 80
5 12/06/2024 08:37:08 0.02,-104.69 0.76,-107.96 373.13 80
6 12/07/2024 08:15:42 0.02,-104.69 -0.26,-103.43 143.49 80
7 12/08/2024 20:37:35 -0.02,-104.65 -0.95,-108.72 463.82 80
8 12/09/2024 20:21:29 -0.02,-104.65 0.07,-104.18 53.41 80
9 12/12/2024 08:24:26 0.03,-104.68 0.06,-104.90 25.30 80
10 12/13/2024 08:02:59 0.03,-104.67 -0.91,-100.35 491.39 80
11 12/14/2024 20:24:52 -0.04,-104.63 -0.27,-105.65 116.35 80
